Regional Weather Roundup
Issued by NWS Sioux Falls, SD

Home | Current Version | Previous Version | Graphics & Text | Print | Product List | Glossary On
Versions: 1 2 3 4 5 6 7 8 9 10 11 12 13 14 15 16 17 18 19 20 21 22 23 24 25 26 27 28 29 30 31 32 33 34 35 36 37 38 39 40 41 42 43 44 45 46 47 48 49 50
439
ASUS43 KFSD 222110
RWRFSD

WEATHER ROUNDUP FOR SE SOUTH DAKOTA/SW MINNESOTA/NW IOWA
NATIONAL WEATHER SERVICE SIOUX FALLS SD
400 PM CDT TUE MAY 22 2018

NOTE: "FAIR" INDICATES FEW OR NO CLOUDS BELOW 12,000 FEET WITH NO
SIGNIFICANT WEATHER AND OR OBSTRUCTIONS TO VISIBILITY.


SDZ038>040-050-052>070-222200-
SOUTHEAST SOUTH DAKOTA

CITY           SKY/WX    TMP DP  RH WIND       PRES   REMARKS
BROOKINGS      MOSUNNY   79  57  46 SE14      29.97S
CHAMBERLAIN    MOSUNNY   84  64  51 SE13G18   29.91F
HURON          MOSUNNY   82  60  47 SE12G20   29.92F
MADISON        FAIR      77  66  69 SE12G18   29.97S
MITCHELL       MOSUNNY   83  65  54 S17G23    29.92F
SIOUX FALLS    PTSUNNY   78  63  59 SE13      29.95F
WINNER         FAIR      82  64  54 SE8G17    29.91F
YANKTON        MOSUNNY   78  66  66 SE9G22    29.93F
$$

MNZ071-072-080-081-089-090-097-098-222200-
SOUTHWEST MINNESOTA

CITY           SKY/WX    TMP DP  RH WIND       PRES   REMARKS
FAIRMONT       MOSUNNY   77  59  53 SE8         N/A
JACKSON        MOSUNNY   77  59  53 S9        30.01F
LUVERNE        PTSUNNY   77  59  53 SE12G17   29.98S
MARSHALL       MOSUNNY   79  59  50 SE10      29.98F
MONTEVIDEO     SUNNY     82  55  39 SW3       29.99S
PIPESTONE      MOSUNNY   79  61  53 S14G20    29.98S
REDWOOD FALLS  MOSUNNY   75  60  59 SE8       30.00S
TRACY          MOSUNNY   80  60  50 SE9       29.98F
WINDOM         SUNNY     79  52  38 S8        29.99F
WORTHINGTON      N/A     77  61  57 S14       30.00F
$$

IAZ001>003-012>014-020>022-031-032-NEZ013-014-SDZ071-222200-
NORTHWEST IOWA

CITY           SKY/WX    TMP DP  RH WIND       PRES   REMARKS
ESTHERVILLE    PTSUNNY   77  60  55 S9        29.99F
SIOUX CITY     CLOUDY    78  67  68 SE10      29.95F
SPENCER        MOSUNNY   79  63  57 SE13      29.99F
$$

ABBREVIATIONS USED IN REMARKS
   TC - TEMPERATURE IN CELSIUS
  WCI - WIND CHILL INDEX
   HX - HEAT INDEX
  VSB - VISIBILITY





USA.gov is the U.S. government's official web portal to all federal, state and local government web resources and services.